FW9327 Weather Reports


time (UTC)temp
C
wind
direction
speed
KPH
gust
KPH
rain 1hr
cm
rain 24hr
cm
rain mn
cm
humidity
%
barometer
mb
20260505124551 7 5 0.0 3.2 0.13 0.15 0.13 83 1008.2
20260505123050 7 0 0.0 1.6 0.10 0.13 0.10 79 1008.0
20260505121556 8 360 0.0 4.8 0.05 0.08 0.05 73 1008.0
20260505120110 9 0 0.0 4.8 0.00 0.03 0.00 66 1008.5
20260505114553 10 5 0.0 4.8 0.00 0.03 0.00 59 1007.3
20260505113052 10 9 1.6 6.4 0.00 0.03 0.00 56 1007.1
20260505111559 10 9 0.0 6.4 0.00 0.03 0.00 58 1006.3
20260505101554 10 0 0.0 4.8 0.00 0.03 0.00 58 1005.3
20260505100054 11 0 1.6 6.4 0.00 0.03 0.00 57 1005.0
20260505094552 11 0 1.6 8.0 0.00 0.03 0.00 58 1005.2
20260505093054 11 9 0.0 4.8 0.00 0.03 0.00 60 1005.1
20260505091553 12 5 0.0 3.2 0.00 0.03 0.00 58 1005.2
20260505090052 12 9 0.0 4.8 0.00 0.03 0.00 54 1005.0
20260505084553 12 360 0.0 9.7 0.00 0.03 0.00 52 1004.4
20260505083051 12 360 1.6 6.4 0.00 0.03 0.00 52 1003.8
20260505081557 12 360 0.0 4.8 0.00 0.03 0.00 52 1003.4
20260505080052 12 0 0.0 16.1 0.00 0.03 0.00 53 1003.2
20260505074600 13 0 0.0 4.8 0.00 0.03 0.00 53 1002.8
20260505073102 13 0 0.0 8.0 0.00 0.03 0.00 51 1002.7
20260505071558 13 0 0.0 4.8 0.00 0.03 0.00 51 1002.3
20260505070049 13 0 0.0 3.2 0.00 0.03 0.00 51 1002.1
20260505064554 13 0 0.0 8.0 0.00 0.03 0.00 51 1002.0
20260505063050 13 360 0.0 8.0 0.00 0.03 0.00 51 1001.9
20260505061557 13 360 1.6 12.9 0.00 0.03 0.00 52 1001.7
20260505060059 13 0 1.6 12.9 0.00 0.03 0.00 54 1001.7
20260505054626 13 360 0.0 6.4 0.00 0.03 0.00 63 1001.7
20260505053101 13 0 0.0 4.8 0.00 0.03 0.00 65 1001.9
20260505051555 13 360 0.0 4.8 0.00 0.03 0.00 65 1001.5
20260505041559 15 0 0.0 3.2 0.00 0.03 0.03 79 1000.7
20260505040056 15 0 0.0 4.8 0.00 0.03 0.03 78 1000.4
20260505034556 15 360 1.6 6.4 0.00 0.03 0.03 79 1000.8
20260505033054 15 0 0.0 8.0 0.00 0.03 0.03 79 1000.7
20260505031606 15 360 0.0 6.4 0.00 0.03 0.03 80 1000.9
20260505030050 15 0 0.0 0.0 0.00 0.03 0.03 79 1000.3
20260505024550 15 0 0.0 1.6 0.00 0.03 0.03 78 1000.1
20260505023106 15 360 0.0 8.0 0.00 0.03 0.03 79 999.9
20260505021553 15 0 1.6 6.4 0.00 0.03 0.03 80 999.7
20260505020053 16 0 0.0 12.9 0.00 0.03 0.03 77 998.9
20260505014608 16 360 1.6 9.7 0.00 0.03 0.03 75 998.9
20260505013108 16 360 4.8 25.7 0.00 0.03 0.03 73 999.0
20260505011557 17 360 6.4 19.3 0.00 0.03 0.03 72 998.7
20260505010050 16 360 3.2 16.1 0.03 0.03 0.03 75 998.8
20260505004559 16 360 3.2 14.5 0.03 0.03 0.03 77 998.8
20260505003057 17 360 3.2 8.0 0.03 0.03 0.03 76 998.3
20260505001600 17 360 0.0 12.9 0.03 0.03 0.03 73 998.0
20260505000115 18 360 3.2 16.1 0.00 0.00 0.00 68 998.8
20260504234554 18 0 1.6 4.8 0.00 0.00 0.00 63 997.9
20260504233055 19 360 1.6 6.4 0.00 0.00 0.00 62 998.3
20260504231555 18 360 1.6 4.8 0.00 0.00 0.00 69 997.3
20260504230104 19 0 0.0 3.2 0.00 0.00 0.00 70 996.9
20260504224550 20 0 1.6 6.4 0.00 0.00 0.00 69 997.2
20260504223101 21 360 3.2 25.7 0.00 0.00 0.00 66 998.0
20260504221603 23 360 3.2 20.9 0.00 0.00 0.00 50 998.2
20260504220100 25 9 4.8 20.9 0.00 0.00 0.00 39 997.7
20260504214553 26 5 4.8 16.1 0.00 0.00 0.00 40 997.5
20260504213051 26 5 6.4 22.5 0.00 0.00 0.00 38 997.7
20260504211550 25 5 4.8 16.1 0.00 0.00 0.00 40 998.0
20260504210052 25 5 4.8 25.7 0.00 0.00 0.00 40 998.0
20260504204601 26 5 6.4 25.7 0.00 0.00 0.00 37 998.1
20260504203100 26 9 8.0 25.7 0.00 0.00 0.00 38 998.3
20260504201556 27 5 6.4 19.3 0.00 0.00 0.00 37 998.4
20260504200052 26 9 4.8 20.9 0.00 0.00 0.00 41 998.5
20260504194549 26 5 6.4 22.5 0.00 0.00 0.00 39 998.8
20260504193048 26 5 9.7 22.5 0.00 0.00 0.00 36 999.2
20260504191605 26 9 6.4 29.0 0.00 0.00 0.00 37 999.2
20260504190049 26 9 6.4 25.7 0.00 0.00 0.00 34 999.2
20260504184549 26 5 6.4 20.9 0.00 0.00 0.00 35 999.2
20260504183052 26 5 4.8 19.3 0.00 0.00 0.00 38 999.4
20260504181557 25 5 4.8 19.3 0.00 0.00 0.00 41 999.6
20260504180127 25 5 6.4 24.1 0.00 0.00 0.00 36 999.7
20260504174555 25 5 6.4 19.3 0.00 0.08 0.00 38 999.9
20260504173051 25 5 6.4 20.9 0.00 0.08 0.00 39 1000.2
20260504171553 24 9 6.4 19.3 0.00 0.08 0.00 42 1000.4